Dunkirk, NY

11:48 PM EDT on May 22, 2018 (GMT -0400)
Chautauqua County-Dunkirk

Weather History for KDKK - June, 2014

Change the Weather History Date:

Saturday, June 7, 2014

  Actual Average Record
Temperature  
Mean Temperature 60 °F -  
Max Temperature 73 °F 74 °F 90 °F (1955)
Min Temperature 48 °F 55 °F 38 °F (1958)
Degree Days  
Heating Degree Days 4    
Growing Degree Days 10 (Base 50)    
Moisture  
Dew Point 46 °F    
Average Humidity 58    
Maximum Humidity 86    
Minimum Humidity 35    
Precipitation  
Precipitation 0.00 in - - ()
Sea Level Pressure  
Sea Level Pressure 30.02 in    
Wind  
Wind Speed 5 mph (West)    
Max Wind Speed 10 mph    
Max Gust Speed 18 mph    
Visibility 10 miles    
Events      
Averages and records for this station are not official NWS values.
T = Trace of Precipitation, MM = Missing Value Source: NWS Daily Summary

Daily Weather History Graph

Daily Weather History Graph

Search for Another Location

Airport or City:

Astronomy

Jun. 07, 2014 Rise Set
Actual Time 5:40 AM EDT 8:52 PM EDT
Civil Twilight 5:05 AM EDT 9:26 PM EDT
Nautical Twilight 4:21 AM EDT 10:11 PM EDT
Astronomical Twilight 3:27 AM EDT 11:04 PM EDT
Moon 3:01 PM EDT (6/7) 2:08 AM EDT (6/7)
Length of Visible Light 16h 20m
Length of Day
15h 11m
Waxing Gibbous, 67% of the Moon is Illuminated
Jun 7
Waxing Gibbous
Jun 13
Full
Jun 19
Last Quarter
Jun 27
New
Jul 5
First Quarter

Hourly Weather History & Observations

Time (EDT) Temp. Dew Point Humidity Pressure Visibility Wind Dir Wind Speed Gust Speed Precip Events Conditions
12:53 AM 57.9 °F 46.0 °F 65% 30.04 in 10.0 mi SSW 5.8 mph - N/A   Clear
1:53 AM 54.0 °F 45.0 °F 72% 30.04 in 10.0 mi SSW 4.6 mph - N/A   Clear
2:53 AM 53.1 °F 45.0 °F 74% 30.03 in 10.0 mi Calm Calm - N/A   Clear
3:53 AM 50.0 °F 45.0 °F 83% 30.03 in 10.0 mi SSW 4.6 mph - N/A   Clear
5:53 AM 48.0 °F 44.1 °F 86% 30.05 in 10.0 mi SSW 4.6 mph - N/A   Clear
6:53 AM 55.0 °F 48.0 °F 77% 30.05 in 10.0 mi SW 3.5 mph - N/A   Clear
7:53 AM 61.0 °F 48.0 °F 62% 30.06 in 10.0 mi SW 4.6 mph - N/A   Clear
8:53 AM 64.9 °F 46.9 °F 52% 30.07 in 10.0 mi WSW 5.8 mph - N/A   Clear
9:53 AM 66.0 °F 46.0 °F 48% 30.11 in 10.0 mi WNW 10.4 mph 18.4 mph N/A   Clear
11:53 AM 70.0 °F 43.0 °F 38% 30.09 in 10.0 mi West 6.9 mph - N/A   Clear
12:53 PM 73.0 °F 44.1 °F 35% 30.06 in 10.0 mi North 8.1 mph - N/A   Clear
1:53 PM 73.0 °F 45.0 °F 37% 30.04 in 10.0 mi North 5.8 mph - N/A   Clear
2:53 PM 73.9 °F 46.0 °F 37% 30.02 in 10.0 mi North 8.1 mph - N/A   Clear
3:53 PM 72.0 °F 43.0 °F 35% 29.99 in 10.0 mi NNW 8.1 mph - N/A   Clear
4:53 PM 73.0 °F 46.0 °F 38% 30.00 in 10.0 mi NW 6.9 mph - N/A   Clear
5:53 PM 72.0 °F 46.0 °F 40% 29.99 in 10.0 mi NW 4.6 mph - N/A   Clear
6:53 PM 72.0 °F 44.1 °F 37% 29.98 in 10.0 mi NW 5.8 mph - N/A   Clear
7:53 PM 66.9 °F 46.9 °F 49% 29.99 in 10.0 mi NW 3.5 mph - N/A   Clear
8:53 PM 61.0 °F 51.1 °F 70% 29.98 in 10.0 mi SE 3.5 mph - N/A   Clear
9:53 PM 59.0 °F 50.0 °F 72% 29.97 in 10.0 mi ESE 3.5 mph - N/A   Clear
10:53 PM 55.0 °F 48.9 °F 80% 29.96 in 10.0 mi Calm Calm - N/A   Clear
11:53 PM 53.1 °F 48.0 °F 83% 29.96 in 10.0 mi Calm Calm - N/A   Clear